STARLINK-32567, 61930

Orbit data source: Space-Track

STARLINK-32567, 61930 is a payload satellite owned by SpaceX/Seattle (US) in LEO that was launched on Mon, 11 Nov 2024 UTC via an FALCON 9 launch vehicle from the Air Force Eastern Test Range (AFETR). Payloads include a variety of satellites, spacecraft, and rockets equipped with specific instruments for various scientific and technological missions. These include communications satellites like Starlink; space stations such as the ISS; scientific satellites like the Hubble; Earth observation satellites from companies like Planet Labs, Umbra, and HawkEye 360; GPS; miniature CubeSats for education and research; and military/defense satellites.

Loading next visibility...
STARLINK-32567 details
Identifier
61930, 2024-207U
Orbit
LEO
Last TLE update8 hours ago
Origin
Flag of USSpaceX/Seattle (US)
ManufacturerSpaceX/Seattle
MissionOperational spacecraft
Bus & MotorSTARLINK V2M, Unknown motor
Mass730 kg wet, ~700 kg dry
Launch date (UTC)
2024-11-11 (1 week ago)
Launch vehicle
FALCON 9
Launch site
Air Force Eastern Test Range (AFETR)
Object type
Payload
Rocket body
Debris
Shape & HBRUnknown
Radar Cross SectionRCS unknown

Expand to show TLE details & history

TLE from 8 hours ago
0 STARLINK-32567
1 61930U 24207U   24325.91668981 -.00651770  13950-3 -18495-2 0  9996
2 61930  43.0019  94.3754 0001838 288.0809 274.4239 15.92377801  2652
Epoch: 2024-11-20T22:00Z
Definitive object data (Epoch: 2024-11-20T22:00:01.999Z)
Latitude-15.25996°
Longitude-99.12779°
Altitude298.507 km
Speed7.73 km/s
True Right ascension19h 25m 08s
True Declination-15° 10' 01"
Sunlit
Object was in daylight at TLE epoch
Visualization TLE readout
Latitude36.40814°
Longitude113.61679°
Altitude299.428 km
Speed7.733 km/s
Apparent Right ascension12h 22m 05s
Apparent Declination0° 59' 43"
Sunlit
Object is in daylight
Visualization observer readout
Local Sidereal Time03:28:50
Azimuth59.603° ENE
Elevation-32.493°
Doppler factor1
Orbital elements
Apogee altitude298.857 km
Perigee altitude296.403 km
Semi-major axis6,675.767 km
Eccentricity0.0001838
Inclination43.0019°
RAAN94.3754°
Arg. of periapsis288.0809°
True anomaly274.4029°
Mean anomaly274.4239°
Eccentric anomaly274.4134°
Mean motion3.97916 °/min
BSTAR-0.0018495
Orbital period90.47 mins
Loading maneuver chart data...
Loading historical data...
Loading historical data...
Loading historical data...
Loading historical data...
Loading historical data...
Loading historical data...
Loading historical data...

STARLINK-32567 Visibility forecast

Observer location: undefined°, undefined

Span
Click to sort rows by Start time (UTC) header in descending order
Start Az.
Max El. time (UTC)
Max El. Az.
Max El.
End time (UTC)
End Az.
4 mins2024-11-21 12:26:17.893Z220.574° SW2024-11-21 12:28:17.893Z146.454° SSE31.691°2024-11-21 12:30:17.893Z85.441° E
|